Weather in Michurinsk

Russia / Republic of Bashkortostan     54°56′00″N   54°08′35″E
temp.,
°C
wind,
m/s
gust,
m/s
humid.,
%
clouds,
%
prec.,
mm/h
press.,
hPa
HPBL,
m
26 february, fri
fri2623:00−22s598799 0.0 1027222
02:00−22sse5109697 0.0 1025265
05:00−22sse499696 0.1 1025298
08:00−24se489683 0.0 1024134
11:00−22sse589580 0.0 1023239
14:00−19sse589387 0.0 1023322
17:00−17sse6109290 0.0 1022471
20:00−20sse6129693 0.0 1019319
27 february, sat
sat2723:00−20sse7159378 0.0 1017341
02:00−17sse91691100 0.0 1012512
05:00−16sse101694100 1.1 1008619
08:00−14sse91594100 2.7 1004692
11:00−12sse81392100 3.1 1002539
14:00−10se71193100 0.3 1001489
17:00−9se61093100 1.0 1000378
20:00−8ese589595 0.3 1000235
28 february, sun
sun2823:00−10e469696 0.6 1000139
02:00−11ene469694 0.1 999131
05:00−13ne469795 0.3 1000137
08:00−14nne479695 0.3 1001181
11:00−14n579697 0.4 1002229
14:00−13n5796100 0.1 1003285
17:00−12n5994100 0.2 1005401
20:00−13nnw51095100 0.1 1008396
1 march, mon
mon123:00−17nnw5998100 0.1 1010202
02:00−20nnw46100100 0.1 1012131
05:00−21nw46100100 0.1 1015117
08:00−23nnw46100100 0.1 1017112
11:00−21nnw459897 0.1 1019194
14:00−17nnw459576 0.0 1020255
17:00−17nnw359477 0.0 1020262
20:00−21nw339948 0.0 102122
2 march, tue
tue223:00−22wsw229824 0.0 102120
02:00−23sw33990 0.0 102034
05:00−22sw479712 0.0 1018101
08:00−20ssw51195100 0.0 1015214
11:00−17ssw71292100 0.0 1013296
14:00−14sw71294100 0.5 1010438
17:00−13ssw61193100 1.1 1008500
20:00−12ssw51194100 0.6 1006445